Overview Statistics Trail Chart Weather Telemetry Raw packets
 

This is the latest recevied weather packets stored in our database for station/object YREN. If no packets are shown the sender has not sent any weather packets the latest 10 day(s).

<< 3 4 5 6 7 8 9 >>
Time Temp. Humidity Pressure Rain* Wind** Luminosity Snow
1788498307 16.11° C 79% 1014.2 hPa 0 mm - - -
1788497404 16.67° C 72% 1014.4 hPa 0 mm - - -
1788496504 16.67° C 72% 1014.4 hPa 0 mm - - -
1788495604 16.67° C 72% 1014.8 hPa 0 mm - - -
1788494704 16.67° C 72% 1014.8 hPa 0 mm - - -
1788493804 16.67° C 72% 1015.2 hPa 0 mm - - -
1788492904 16.67° C 72% 1015.2 hPa 0 mm - - -
1788492004 16.11° C 78% 1016.3 hPa 0.25 mm - - -
1788491104 16.11° C 78% 1016.3 hPa 0.25 mm - - -
1788490203 15.56° C 87% 1017.4 hPa 0.76 mm - - -
1788489303 15.56° C 87% 1017.4 hPa 0.76 mm - - -
1788488404 15° C 88% 1018.4 hPa 1.02 mm - - -
1788487504 15° C 88% 1018.4 hPa 1.02 mm - - -
1788486604 15° C 85% 1019.7 hPa 0.51 mm - - -
1788485704 15° C 85% 1019.7 hPa 0.51 mm - - -
1788484804 15° C 86% 1019.1 hPa 0 mm - - -
1788483904 15° C 86% 1019.1 hPa 0 mm - - -
1788483004 15° C 82% 1019.2 hPa 0 mm - - -
1788482103 15° C 82% 1019.2 hPa 0 mm - - -
1788481204 15° C 75% 1019 hPa 0 mm - - -
1788480304 15° C 75% 1019 hPa 0 mm - - -
1788479404 13.89° C 81% 1018.5 hPa 0 mm - - -
1788478504 13.89° C 81% 1018.5 hPa 0 mm - - -
1788477604 12.22° C 84% 1018.6 hPa 0 mm - - -
1788476704 12.22° C 84% 1018.6 hPa 0 mm - - -

* Rain latest hour (hover to see other rain measurements)
** Current wind speed in m/s (hover to see current wind gust speed)